GEFSMA_500_meanwind_192.txt.gz
Wind_Speed
27 27 27 27 27 27 27 26 26 26 25 25 26 26 26 26 26 27 25 25 25 26 26 26 27 27 27 28 27 27 27 28 27 28 28 28 28 27 27 28 28 28 28
27 27 28 28 28 28 28 28 27 27 26 26 26 27 27 27 27 27 26 25 25 26 27 27 27 28 28 29 29 28 28 28 28 29 29 29 29 28 28 28 28 29 29
28 29 28 28 28 28 28 28 27 27 26 26 26 26 26 26 26 26 26 26 25 25 26 27 28 28 29 29 29 30 30 29 29 30 30 30 30 29 30 30 30 29 30
28 28 28 28 28 28 28 28 27 27 27 26 26 26 26 27 27 26 26 26 26 26 26 27 27 28 29 30 30 31 31 30 30 30 31 30 31 30 31 31 31 31 31
27 27 28 28 28 27 28 29 28 27 28 28 28 27 27 28 28 28 27 28 28 28 27 27 28 29 29 30 30 31 32 32 32 31 31 31 31 31 32 31 32 33 33
26 26 26 27 28 27 27 28 27 27 27 28 28 28 28 28 29 29 29 29 30 30 29 29 29 29 30 31 31 31 32 32 33 33 32 32 32 32 33 33 33 33 34
25 26 25 25 25 25 25 25 25 26 26 27 28 28 29 29 29 30 31 31 31 31 31 30 30 30 31 31 31 31 32 32 33 33 33 33 33 33 34 34 34 34 35
24 24 22 23 24 23 24 24 25 25 26 27 27 28 28 29 29 30 31 32 32 32 32 32 32 31 31 31 32 33 33 34 34 34 34 35 33 33 35 35 35 35 36
22 22 22 22 23 23 23 23 24 25 25 26 27 27 27 27 29 29 29 31 32 33 33 33 34 33 33 33 33 34 34 35 35 35 36 36 36 36 36 36 36 36 36
23 23 23 23 24 24 23 23 24 24 24 25 25 26 27 27 28 28 29 30 31 32 33 33 33 34 33 34 34 35 35 36 36 36 36 37 37 37 38 38 38 38 37
23 23 22 23 24 23 23 24 24 24 24 25 25 26 27 27 27 28 28 30 31 32 32 33 34 34 34 34 34 35 36 37 37 37 37 38 38 38 38 38 38 39 38
23 23 23 23 24 23 24 24 24 24 25 25 26 26 26 26 26 27 28 30 31 32 33 33 34 34 35 36 36 36 37 38 38 38 38 39 39 38 38 38 39 39 39
23 23 23 23 23 22 23 24 24 24 24 25 25 26 26 26 26 27 28 29 31 32 33 34 35 35 36 36 37 36 37 38 39 39 38 39 39 39 40 39 40 40 39
22 21 21 22 22 21 22 22 23 23 23 24 25 25 26 26 26 27 28 29 30 31 32 33 34 35 35 36 37 37 37 37 38 40 40 40 40 40 40 40 40 41 40
20 19 20 20 20 20 20 21 21 22 23 24 25 25 26 26 27 27 27 29 29 30 31 33 34 34 34 34 35 37 38 38 38 39 40 40 41 41 41 42 42 42 41
18 18 18 19 19 19 20 20 20 22 24 24 25 25 25 25 26 27 27 28 28 29 30 32 33 34 35 36 36 36 37 37 37 38 38 39 40 41 42 42 42 43 43
17 17 17 18 18 19 20 20 21 22 23 23 24 24 24 24 25 26 26 27 28 29 30 31 32 33 34 35 36 35 35 36 37 37 38 38 39 40 41 41 42 42 43
16 16 16 17 18 19 20 20 20 21 22 22 23 23 23 24 25 25 26 28 28 28 29 29 30 31 32 32 33 35 36 36 37 37 38 38 38 38 39 40 41 41 42
16 16 17 17 18 19 19 20 21 22 23 23 22 22 23 24 25 26 26 27 26 26 27 28 29 30 30 31 32 32 33 34 36 36 37 37 37 38 38 39 40 41 41
16 16 16 17 17 18 19 20 21 22 23 22 22 22 23 24 25 26 26 25 25 25 26 27 27 27 28 29 30 31 31 32 33 34 36 36 36 37 38 38 39 40 41
16 16 16 16 17 18 19 20 21 22 23 23 22 22 23 23 24 25 26 26 26 25 25 25 25 25 25 27 28 29 29 30 31 32 33 34 35 36 37 38 39 39 40
16 16 17 17 18 19 20 21 21 21 22 22 22 22 22 22 24 24 25 25 25 25 25 24 25 25 25 25 25 27 28 29 30 31 32 32 34 35 37 37 38 39 40
16 17 17 18 19 20 21 21 21 21 21 21 21 21 21 22 23 24 25 25 25 25 25 25 25 25 25 25 25 26 27 28 28 29 30 31 33 34 35 36 38 39 41
17 17 18 19 19 20 20 21 21 21 21 21 21 22 22 23 24 24 25 25 25 25 25 24 24 25 25 25 25 25 25 26 27 28 29 30 32 34 35 37 38 39 40
17 17 19 19 19 19 20 21 22 22 22 21 21 22 22 23 24 24 25 25 25 25 25 25 25 24 24 24 24 24 24 24 25 26 27 30 32 34 35 37 38 38 39
17 18 19 19 19 20 21 22 22 23 22 22 22 23 23 24 24 25 25 25 24 24 24 24 24 24 24 24 24 25 25 26 26 26 26 27 29 31 33 34 36 37 38

GEFSMA_500_meanwind_198.txt.gz
Wind_Speed
26 26 25 26 26 27 28 27 25 25 24 24 24 24 24 23 23 24 23 23 24 25 25 25 26 27 28 28 28 27 27 27 26 26 27 27 27 28 27 28 28 27 27
26 26 26 26 27 27 28 28 27 25 25 25 25 24 25 24 24 24 23 23 24 25 25 25 25 26 28 29 28 28 28 28 27 27 28 28 28 28 28 28 29 28 28
27 26 26 26 27 28 28 27 26 27 26 26 26 26 26 26 25 25 25 24 25 26 26 27 27 27 28 29 29 28 28 29 29 28 28 29 29 29 29 29 30 29 29
27 27 26 26 26 26 26 25 25 26 27 27 26 27 27 26 26 26 25 26 26 26 26 26 27 27 27 28 29 29 28 28 28 29 29 30 30 31 30 29 31 31 31
27 26 25 24 25 24 24 24 24 24 25 25 25 26 26 26 26 26 26 27 27 26 26 26 26 27 27 27 28 29 29 29 29 29 30 30 31 31 31 31 31 31 32
26 25 25 25 25 25 24 24 24 24 24 24 24 25 25 26 26 25 26 27 27 27 28 26 26 27 27 28 28 28 29 30 30 30 31 31 31 32 32 33 32 32 33
24 25 25 25 25 25 24 24 24 24 24 24 25 25 25 25 25 25 26 26 27 27 28 28 28 28 28 27 28 28 29 30 31 32 32 32 33 32 33 34 34 34 34
25 25 25 25 25 24 23 23 23 24 24 24 24 25 25 25 25 24 25 26 26 27 28 28 29 29 29 29 30 30 29 31 32 33 33 33 33 33 33 34 34 35 35
23 23 24 23 23 23 23 23 23 24 24 24 25 26 26 25 25 25 25 25 26 27 28 29 30 31 31 31 31 31 31 31 32 33 33 34 34 34 35 35 36 36 36
23 23 23 23 22 22 23 23 24 24 24 24 25 26 26 26 26 26 26 26 26 27 28 29 30 31 32 31 31 30 32 32 33 33 34 35 35 36 36 37 37 37 37
22 22 22 22 22 23 23 24 25 25 25 25 25 25 26 27 27 26 26 26 26 26 27 29 30 31 31 32 32 33 33 34 34 34 35 36 36 36 37 38 38 38 38
22 22 22 23 23 23 24 24 24 24 25 25 25 25 26 27 27 27 26 25 25 26 27 28 29 30 31 32 33 33 34 34 35 35 35 36 37 38 38 38 38 38 39
22 22 22 22 23 23 23 23 24 25 26 26 26 26 26 27 27 27 26 25 25 25 26 26 28 29 30 31 32 33 33 34 35 35 35 36 37 39 40 39 39 40 39
21 21 21 21 22 23 22 23 24 25 26 26 27 27 27 27 27 27 26 25 25 25 26 28 29 29 30 31 32 33 33 33 35 35 35 36 37 38 39 40 40 41 41
19 20 21 21 22 22 22 22 23 24 25 25 26 26 26 26 26 25 25 25 26 26 27 28 29 29 30 30 32 33 33 33 34 35 35 36 37 37 39 39 40 40 41
19 19 20 21 21 21 21 21 22 23 24 24 24 24 24 24 25 25 25 26 27 27 28 28 28 29 30 30 31 32 34 33 33 34 35 35 36 37 38 39 39 40 40
17 18 19 20 20 20 20 21 22 22 22 22 22 22 23 23 24 25 25 26 26 28 28 28 28 28 28 29 30 31 33 33 33 34 35 36 36 37 37 38 39 40 40
16 17 19 19 19 19 20 20 20 21 21 22 22 21 21 22 22 23 24 25 25 27 28 27 27 28 28 28 29 30 31 32 32 33 34 36 37 37 38 38 38 39 40
16 17 18 18 18 18 19 19 20 20 21 21 21 21 21 21 22 23 23 23 23 25 26 26 26 26 27 27 28 30 30 31 32 32 33 35 37 37 38 38 39 39 39
15 16 17 17 16 17 18 18 19 20 20 21 20 21 21 21 22 22 22 23 23 24 25 25 24 24 24 25 27 28 28 28 30 31 32 33 34 35 36 37 38 38 38
15 16 17 16 17 17 18 19 19 20 21 21 21 21 21 21 21 21 22 22 23 24 25 25 24 25 24 24 25 26 27 27 28 29 30 30 30 32 33 34 36 38 38
17 18 18 17 18 18 18 19 19 20 21 21 20 20 21 20 21 21 22 22 23 24 24 24 23 24 24 24 25 26 26 26 27 28 29 29 29 30 31 32 34 36 37
17 18 18 18 18 18 18 19 20 21 22 22 21 21 21 20 21 22 22 23 24 24 25 24 24 24 24 24 24 24 25 26 26 27 29 30 30 30 31 31 32 34 36
17 17 18 18 19 19 19 20 21 22 22 22 22 21 21 21 22 23 23 23 25 25 24 24 23 22 23 23 24 24 25 26 26 27 28 30 31 32 33 33 33 33 34
17 17 18 18 19 20 21 22 22 22 22 22 22 22 23 23 23 24 24 24 25 24 24 23 22 23 23 24 24 24 24 25 25 26 27 29 30 31 32 32 34 35 35
17 18 18 19 20 21 21 22 23 22 22 23 23 23 23 24 24 24 25 25 25 24 23 23 23 23 23 23 23 23 24 24 24 24 26 27 29 30 29 30 32 33 34

GEFSMA_500_meanwind_204.txt.gz
Wind_Speed
22 23 22 23 23 23 23 22 22 22 23 23 23 23 23 23 24 25 25 26 26 25 26 26 26 27 27 27 26 26 27 27 27 27 28 28 28 27 27 27 27 27 27
22 23 23 22 22 22 22 21 21 20 21 21 21 21 22 23 23 24 25 25 26 26 26 27 27 28 28 28 27 26 27 28 28 28 28 29 29 28 28 28 29 29 28
23 22 22 22 22 20 20 20 20 19 19 20 20 20 21 21 22 23 24 25 25 26 27 27 27 28 28 29 29 28 28 29 30 30 30 30 29 29 29 29 29 30 30
22 22 22 21 20 19 19 19 19 19 18 18 19 20 21 21 21 22 23 24 26 27 28 28 28 27 28 29 29 30 29 30 31 31 31 31 30 30 30 30 31 31 30
21 20 20 19 19 19 19 19 18 18 19 19 19 19 20 21 21 21 22 24 25 27 28 28 29 29 28 29 30 29 29 29 30 31 31 31 31 31 31 32 32 32 32
21 20 19 19 19 19 20 19 19 19 19 19 20 20 20 21 22 22 23 23 24 25 27 29 29 29 29 29 29 30 29 29 30 30 31 32 32 32 32 33 34 34 33
19 19 19 19 19 19 20 19 19 19 19 19 20 20 21 22 22 22 22 23 24 25 25 26 27 28 29 29 29 30 31 30 31 31 31 32 33 33 33 33 35 35 36
19 19 18 18 19 20 19 19 19 20 20 20 21 21 21 22 22 22 23 23 23 24 24 25 26 27 29 30 30 30 30 30 31 32 32 33 34 34 33 34 35 36 36
20 20 19 19 19 19 18 19 20 20 20 20 21 22 22 22 22 23 23 22 22 23 24 25 26 28 29 30 31 32 31 31 31 32 33 32 33 34 34 35 36 37 37
20 20 20 20 20 19 19 19 20 20 21 21 22 23 23 23 23 23 23 23 24 24 25 26 27 28 29 30 31 33 33 34 33 32 34 35 34 34 34 35 36 36 38
20 19 19 19 19 19 19 20 20 21 21 22 23 24 24 24 23 23 23 23 24 24 25 26 27 28 29 30 31 33 34 34 34 34 34 35 36 36 36 36 37 36 37
18 18 18 18 18 19 19 20 20 21 22 23 23 24 25 24 24 24 24 24 25 25 25 26 27 28 29 30 31 32 33 34 35 36 36 35 36 38 38 38 38 38 37
17 17 18 18 18 19 19 20 21 22 23 23 24 24 25 24 24 25 25 24 25 25 26 27 27 28 29 30 31 32 33 34 35 36 36 37 37 38 38 39 39 40 40
16 17 18 18 18 19 20 20 21 22 23 23 24 23 24 23 23 25 25 25 25 25 25 26 28 28 28 30 31 32 32 33 34 35 36 37 38 38 39 40 41 41 41
15 16 17 18 19 20 21 21 22 23 23 23 23 22 22 23 23 24 24 24 25 24 25 26 27 28 29 30 30 30 31 32 33 34 36 38 39 39 40 40 41 41 42
15 16 16 17 19 20 21 21 21 22 22 22 22 21 22 22 22 23 23 23 24 24 24 25 25 26 28 29 30 29 30 30 32 33 35 36 37 39 40 40 41 41 41
14 15 15 17 18 18 19 19 20 20 20 20 20 20 21 21 22 22 21 21 22 22 22 23 24 25 27 28 27 27 27 28 30 31 33 35 36 38 39 41 41 41 41
13 14 15 16 17 17 17 18 18 19 19 20 20 20 21 21 21 21 20 21 21 21 22 22 23 25 25 26 25 26 27 28 29 30 31 32 33 36 38 39 40 41 41
13 14 15 15 15 15 16 17 17 17 18 19 19 20 20 20 20 20 20 20 20 21 21 21 22 24 24 24 24 26 27 28 28 29 30 31 32 33 36 37 38 39 40
13 15 15 14 15 15 15 16 16 16 17 18 18 19 20 20 20 20 19 19 19 20 20 21 21 22 22 23 23 25 26 26 27 29 30 30 31 32 34 36 37 39 40
14 15 15 15 15 16 15 14 15 16 17 18 19 20 20 20 20 19 18 18 19 19 19 20 20 20 21 22 22 24 25 26 27 29 30 30 31 32 34 35 37 39 39
15 15 15 15 16 16 15 15 16 16 18 19 20 20 20 20 20 19 18 18 18 19 19 20 21 21 22 22 23 23 24 25 25 26 27 28 29 31 33 35 36 37 38
14 14 14 15 15 15 15 15 16 18 19 20 20 21 20 19 19 18 18 18 18 18 19 20 21 22 22 23 23 23 24 24 25 26 28 28 29 29 31 33 35 37 38
14 14 15 15 15 15 15 16 18 19 19 20 21 21 21 20 19 19 18 19 18 18 20 21 21 21 21 21 22 23 24 24 25 27 29 29 29 29 29 32 34 36 37
14 14 15 15 15 16 16 17 18 19 20 21 21 21 21 22 21 20 20 20 19 19 20 21 21 21 21 22 23 23 24 24 25 26 27 28 28 29 30 30 33 35 37
14 15 15 15 16 16 17 18 19 20 21 21 21 22 22 22 21 21 20 20 19 19 20 21 21 22 23 23 24 24 24 24 25 26 26 27 28 29 30 30 31 33 35

GEFSMA_500_meanwind_210.txt.gz
Wind_Speed
23 22 23 23 23 22 22 22 22 22 22 21 21 21 20 21 22 22 22 22 23 24 24 25 25 25 26 27 27 27 26 26 26 26 26 26 26 26 27 28 28 27 27
22 22 22 22 22 22 22 21 21 21 21 21 22 22 20 20 20 21 22 22 23 24 24 25 26 26 26 27 28 28 28 28 27 27 27 28 28 28 28 28 28 28 27
21 21 22 22 22 22 21 21 21 21 21 21 21 22 21 20 20 21 22 22 23 24 24 25 26 27 26 27 27 28 29 29 29 29 29 29 29 29 29 29 29 29 28
21 21 21 21 20 20 20 20 21 21 21 21 21 22 22 21 21 21 22 23 24 25 25 25 26 27 27 27 28 28 29 29 29 29 30 30 31 31 31 31 31 31 30
21 20 19 19 19 19 20 20 20 21 21 21 21 21 22 23 22 22 22 23 24 25 25 26 27 28 29 29 29 28 29 30 30 30 30 31 32 32 32 32 32 33 32
20 20 19 18 18 19 20 21 21 21 22 22 22 22 23 24 23 23 22 23 24 25 26 26 27 28 30 29 29 29 29 30 30 31 31 31 32 32 33 34 33 34 34
19 19 19 19 20 20 21 21 21 22 21 22 23 23 23 24 24 24 24 24 25 25 26 26 26 26 29 30 30 30 30 31 32 32 32 32 33 33 34 35 34 34 35
19 19 19 19 19 20 20 21 21 21 22 23 23 23 24 24 24 25 26 26 26 26 26 26 26 27 27 29 30 31 30 30 31 32 32 32 33 33 34 35 35 35 35
18 17 18 19 19 19 20 21 22 22 22 23 24 25 24 24 25 26 27 27 26 26 25 25 26 27 27 28 29 30 30 30 31 32 33 33 33 34 34 35 35 35 35
17 17 18 19 20 20 20 21 22 23 23 24 25 26 26 26 26 26 27 27 27 26 26 26 26 27 27 27 28 29 31 32 32 32 33 34 34 34 35 36 36 36 36
17 18 18 19 20 21 22 22 23 22 23 23 24 25 26 27 26 26 26 26 27 27 27 27 27 27 28 28 29 29 30 32 33 33 34 34 34 35 36 36 37 37 36
18 18 19 19 20 21 21 21 22 22 23 23 23 25 26 26 26 27 27 26 27 28 28 27 27 28 29 30 30 30 30 31 33 34 34 35 35 35 35 37 37 37 37
17 18 18 19 20 20 20 21 21 22 23 24 24 24 25 25 26 26 27 27 28 28 28 28 28 29 30 31 31 31 32 32 33 34 35 35 36 36 36 36 37 38 38
16 17 18 19 20 20 21 21 21 21 22 23 23 24 24 25 25 26 26 27 27 27 27 28 29 30 31 31 32 32 32 32 32 33 34 35 35 36 35 35 37 38 38
16 17 17 18 19 20 21 21 21 21 21 22 22 22 23 23 24 24 25 25 25 26 27 28 29 30 30 30 31 32 32 32 32 33 35 35 35 35 35 36 37 39 39
16 16 17 18 19 19 20 20 20 20 20 21 21 21 22 22 23 23 24 24 25 25 25 27 27 28 29 30 31 31 31 31 32 33 33 34 34 35 36 37 37 38 40
17 17 18 18 18 18 18 19 19 19 19 20 21 21 21 22 21 22 23 23 24 24 24 24 25 25 26 27 28 30 30 29 30 30 31 32 34 35 35 36 37 38 38
17 17 17 16 16 17 18 18 18 18 18 18 19 20 20 21 21 21 21 22 22 22 23 23 23 25 25 26 27 27 28 28 28 29 29 31 32 34 35 35 36 37 38
17 16 15 15 16 17 17 17 17 17 17 18 18 19 20 20 20 20 20 20 20 20 21 22 23 24 24 24 25 25 27 27 28 28 29 29 30 32 33 34 34 35 37
15 14 14 15 16 17 17 16 15 15 16 16 17 18 19 19 19 18 19 18 18 19 20 21 22 22 23 24 24 25 26 27 28 28 29 29 30 31 32 33 32 33 35
14 14 14 15 16 16 16 14 13 14 15 16 17 17 18 17 17 18 17 17 17 19 20 21 21 21 22 23 24 25 26 27 28 28 29 30 31 32 32 33 33 35 35
13 13 14 15 15 15 15 14 14 15 16 16 16 17 17 17 18 18 18 18 19 19 20 20 21 22 22 23 24 25 25 26 27 28 29 29 30 31 32 33 33 34 35
13 13 13 14 15 15 15 15 15 15 16 17 18 19 19 19 20 21 20 20 20 19 20 20 21 22 22 23 24 25 25 26 27 27 28 28 29 30 32 33 34 35 36
13 13 14 14 15 15 15 16 16 16 17 18 19 20 21 21 22 22 21 22 21 21 21 22 22 23 23 23 24 25 25 26 27 27 28 28 29 30 31 32 33 34 35
13 13 14 15 15 16 16 16 16 16 17 19 20 21 22 23 23 23 23 23 22 22 22 22 23 24 24 24 25 26 26 27 27 27 28 28 28 28 30 31 32 33 34
13 14 15 15 16 16 16 17 17 18 18 20 21 22 23 24 24 25 24 24 23 23 23 23 23 24 24 24 25 25 26 26 26 26 26 27 28 28 29 30 31 32 33

GEFSMA_500_meanwind_216.txt.gz
Wind_Speed
20 20 20 20 20 20 21 20 20 20 20 19 19 19 19 20 20 21 21 21 21 22 23 24 23 23 23 23 23 25 25 26 26 26 26 26 26 27 26 27 26 26 26
19 19 20 20 21 21 21 21 21 20 21 20 20 21 20 20 21 22 23 22 21 22 23 24 24 25 25 24 24 25 25 26 26 26 26 26 27 28 28 28 28 28 27
20 20 20 20 21 21 22 22 21 21 21 21 21 21 22 22 23 23 23 24 24 23 23 24 25 25 25 25 24 25 26 26 26 26 26 26 27 28 30 30 30 29 29
21 21 21 21 21 20 20 20 21 21 21 22 22 22 23 23 23 23 23 24 25 24 24 24 25 26 26 27 26 26 26 27 27 27 27 27 27 28 29 31 31 32 31
20 20 21 21 20 19 19 19 20 20 20 21 22 23 23 23 23 24 24 24 25 25 26 25 25 26 27 28 28 28 29 29 29 29 28 28 29 29 29 30 31 32 33
19 19 19 19 19 18 19 19 19 20 20 21 22 22 23 23 24 24 24 25 25 26 27 27 27 27 28 29 29 30 30 30 30 30 30 30 31 31 31 31 31 31 31
17 17 18 18 19 19 19 19 20 20 21 21 22 23 24 24 24 25 25 26 25 26 26 27 28 28 28 28 29 30 31 31 30 30 31 31 32 31 31 31 31 32 32
16 17 16 17 18 18 18 20 20 21 21 22 22 23 24 25 25 25 26 26 26 27 26 28 29 29 29 29 29 30 30 31 31 30 31 31 31 31 32 32 32 33 34
16 16 16 16 17 18 18 19 20 21 21 22 23 23 24 24 25 25 26 26 27 27 28 27 28 28 28 28 28 29 29 30 31 32 32 32 32 32 33 32 32 33 34
16 15 15 17 18 18 19 19 20 21 21 22 22 23 23 24 25 26 25 25 26 26 27 27 27 28 28 29 29 29 30 30 31 32 33 33 33 34 34 34 34 33 34
15 15 16 17 18 18 19 19 20 21 21 21 21 21 21 22 23 24 24 24 25 26 26 26 28 27 28 29 29 30 31 31 32 32 34 34 34 34 35 35 35 35 35
14 15 16 16 17 18 18 19 19 20 20 20 20 20 20 20 20 21 22 23 25 26 26 26 27 27 28 29 30 30 31 32 33 34 34 34 34 34 34 35 35 36 36
15 15 15 16 17 17 17 17 18 18 19 19 19 19 20 20 20 21 22 23 24 25 25 26 27 28 28 29 29 29 30 31 33 34 34 35 35 35 35 35 36 36 36
15 15 15 15 15 15 16 17 17 18 18 19 19 19 20 20 21 21 22 22 22 22 23 25 27 27 28 29 29 28 28 29 31 33 34 35 35 36 36 36 36 36 36
15 15 14 13 13 15 16 16 17 18 19 19 19 20 21 21 21 21 21 21 21 22 23 24 25 27 27 28 28 28 29 29 30 31 32 33 35 35 36 36 36 37 37
14 14 13 13 14 15 16 16 17 18 18 18 19 19 19 19 20 20 20 21 22 22 23 23 24 26 26 28 28 28 29 28 29 30 32 33 33 34 35 36 36 36 37
14 14 13 14 14 15 16 16 16 16 16 17 18 18 18 18 18 19 19 20 21 23 23 23 23 24 25 26 27 27 28 28 28 29 30 31 32 33 34 35 35 36 37
14 13 13 13 14 15 15 16 16 15 15 16 16 17 17 17 17 18 19 19 20 21 21 22 23 23 24 25 26 27 28 28 29 29 30 31 32 33 34 35 36 37 38
13 13 13 13 14 14 15 15 15 15 15 15 15 15 16 16 16 17 18 18 20 20 20 21 22 24 24 26 27 28 28 28 29 29 30 31 32 33 34 35 36 37 38
13 13 13 13 13 13 13 13 14 14 13 14 15 15 15 16 17 18 17 18 19 20 21 22 22 23 24 25 26 27 27 28 29 30 30 31 33 34 34 35 36 37 38
12 13 13 13 13 13 13 13 13 13 13 13 14 14 15 17 18 18 18 19 20 21 21 22 22 22 23 24 25 26 27 28 29 30 31 33 34 34 35 35 36 37 38
13 13 13 13 13 13 13 14 14 15 15 15 15 15 16 17 18 19 19 19 20 20 21 21 22 21 22 23 24 25 26 28 29 30 31 32 34 35 35 36 35 36 37
13 13 13 13 13 13 14 14 15 16 16 16 16 17 18 19 19 20 20 21 20 21 22 22 22 22 22 23 24 24 25 27 28 29 30 31 32 33 33 34 34 34 35
13 13 13 14 14 14 14 15 15 16 16 16 17 18 19 20 21 21 21 22 22 22 22 22 22 22 22 23 23 24 25 26 27 28 29 30 32 32 33 33 33 33 34
13 14 14 14 14 14 14 15 15 15 16 16 18 19 20 21 21 22 22 22 22 23 23 23 23 23 23 23 24 25 25 25 26 27 28 30 31 32 33 33 34 34 35
14 14 14 14 14 14 15 15 15 16 17 17 18 20 20 21 21 21 22 23 23 24 24 24 23 23 23 24 24 24 25 25 26 26 26 28 29 31 32 33 34 35 35

GEFSMA_500_meanwind_222.txt.gz
Wind_Speed
19 19 19 19 19 19 19 19 19 19 19 19 19 19 19 19 20 20 19 19 20 21 22 22 23 24 24 24 24 24 24 24 24 25 25 25 25 26 26 26 25 25 24
19 19 19 19 19 19 20 20 20 20 20 19 19 20 20 20 20 20 20 20 20 22 23 24 24 23 24 25 24 24 24 24 25 24 25 24 24 25 25 25 26 26 26
20 19 19 19 19 19 19 19 19 19 19 19 20 21 21 21 21 21 22 22 22 22 23 24 24 24 24 25 25 25 25 24 24 25 25 25 24 24 25 25 26 26 26
21 20 20 19 19 19 19 19 18 18 19 20 21 21 22 23 22 23 23 24 24 23 23 24 24 25 26 26 27 27 27 26 25 25 26 26 26 26 26 26 26 26 27
20 19 18 18 18 18 18 19 18 19 19 20 21 22 22 23 23 23 24 24 24 23 24 25 25 26 26 26 27 27 28 27 27 27 27 27 27 27 27 27 27 27 27
20 19 19 18 18 17 17 18 18 19 19 19 21 21 21 22 22 23 23 24 24 25 25 25 25 25 26 27 27 28 28 28 28 28 28 28 28 28 27 28 27 27 27
19 19 19 18 17 17 18 17 17 18 18 19 19 20 20 21 22 23 24 24 24 25 25 25 25 26 26 27 28 28 29 29 29 28 28 28 29 29 28 27 28 28 28
18 18 18 17 16 16 16 17 16 17 18 19 19 19 20 21 21 22 23 23 23 23 24 25 26 27 28 28 29 29 29 29 29 29 29 29 30 30 30 29 29 28 28
18 17 17 16 16 16 15 15 16 17 18 18 19 20 20 20 21 22 22 23 23 23 23 24 25 27 27 28 29 29 29 29 29 30 30 30 30 30 30 31 30 29 29
17 15 15 15 15 15 14 15 16 17 18 18 19 19 20 20 20 21 21 21 22 23 23 24 25 25 25 25 27 29 29 29 30 31 31 31 31 31 32 32 31 31 31
16 16 15 16 15 15 14 15 16 17 18 18 19 19 19 20 20 20 20 20 21 21 21 22 22 23 25 25 26 27 29 30 31 31 32 32 32 32 32 32 33 33 32
15 15 15 15 15 15 15 16 17 17 17 18 18 19 19 19 20 21 21 21 20 21 22 23 23 24 26 26 27 27 28 29 30 31 32 33 33 33 33 34 34 33 34
13 14 14 15 15 15 15 17 17 17 18 19 18 19 19 20 20 21 21 21 21 21 22 23 24 25 26 26 27 28 28 29 29 30 31 32 34 34 34 34 35 34 34
13 13 14 15 15 15 16 17 18 18 18 18 18 19 20 20 20 20 21 21 21 22 22 24 25 25 25 26 27 28 29 29 30 31 32 33 34 34 35 35 35 35 34
14 13 14 15 15 15 16 17 17 18 18 19 19 19 19 19 20 21 21 22 22 22 22 23 23 24 24 25 27 28 28 29 30 31 33 34 34 34 34 34 35 34 34
14 14 14 15 15 16 16 17 17 17 17 18 19 19 19 19 19 20 21 22 22 22 21 22 23 24 24 25 25 26 27 28 29 30 31 31 32 33 33 33 33 34 34
14 14 14 14 15 15 15 15 16 16 17 18 18 18 19 19 19 20 21 21 22 22 21 21 22 23 24 24 24 25 26 26 26 27 28 29 30 31 32 32 32 33 34
15 15 15 14 14 14 15 15 15 16 17 18 18 18 18 19 19 20 20 21 21 21 21 20 21 22 23 24 25 25 25 25 25 26 27 27 29 30 31 32 33 34 34
16 15 15 15 15 15 16 15 15 16 17 18 18 18 18 19 19 19 20 20 21 21 21 21 21 22 23 24 24 25 24 25 25 26 27 28 29 30 31 32 33 34 35
16 16 16 16 17 17 16 15 16 16 17 18 18 18 18 19 19 19 20 20 20 20 21 21 21 21 22 23 23 23 23 24 25 26 27 28 28 29 31 32 34 35 35
16 16 16 17 17 17 16 16 17 17 17 17 17 17 18 18 19 19 19 20 20 21 22 21 21 21 21 22 22 23 23 24 26 27 27 28 29 29 31 32 33 35 36
17 17 18 18 18 17 17 17 17 17 17 17 17 17 17 18 19 20 20 21 22 21 22 22 22 22 22 22 21 21 22 24 25 26 27 28 29 30 31 32 33 35 36
17 17 17 17 18 18 17 17 17 17 17 17 17 18 18 19 20 21 21 22 22 22 22 22 22 22 22 22 22 21 22 22 23 25 26 26 27 29 31 32 33 34 35
16 17 17 17 17 18 18 18 17 18 17 18 18 19 20 21 21 22 22 23 23 23 22 22 23 23 24 24 24 23 23 22 23 24 25 26 27 28 29 31 31 33 34
17 17 17 17 18 18 18 18 17 17 17 17 17 18 20 21 21 22 22 22 23 23 23 23 24 24 24 24 24 24 24 23 23 24 24 24 25 26 27 28 29 31 33
18 18 18 18 18 18 18 18 17 17 17 17 18 19 19 20 21 21 22 22 22 23 23 23 24 24 25 25 24 24 24 24 23 24 24 23 24 24 25 26 28 30 31

GEFSMA_500_meanwind_228.txt.gz
Wind_Speed
17 18 17 16 17 17 18 18 18 17 18 18 18 18 18 18 19 18 18 19 20 20 20 20 20 20 22 22 23 23 23 23 24 23 23 23 22 22 23 23 23 23 22
18 17 18 17 17 18 18 18 18 18 18 18 19 19 19 19 20 20 19 20 21 21 21 21 21 20 21 22 23 23 24 24 25 24 24 23 23 22 23 23 23 23 22
19 18 17 17 17 18 18 18 18 18 18 18 19 20 20 21 21 21 21 21 22 22 22 22 22 22 23 23 24 24 24 25 26 26 25 25 24 24 23 23 24 24 23
19 19 18 18 17 18 18 18 18 18 18 19 19 19 20 21 21 21 21 22 23 23 23 24 24 24 24 24 25 25 25 25 26 26 26 26 25 25 25 24 24 25 25
18 18 18 17 17 17 17 18 18 18 18 19 19 19 19 20 20 20 21 21 22 23 24 24 24 24 24 25 25 27 27 26 27 27 27 27 27 27 26 26 25 26 26
18 18 18 17 17 17 17 17 17 18 18 19 19 19 19 19 20 20 20 21 21 22 23 23 24 24 24 24 25 27 28 28 28 28 28 28 28 28 28 27 26 26 26
17 17 18 18 17 17 17 17 17 17 17 17 18 18 18 18 19 20 20 20 21 21 22 23 23 24 24 24 25 26 28 29 29 29 29 29 29 29 29 28 27 26 26
18 17 16 16 16 17 17 17 17 17 17 17 17 17 18 19 20 20 21 21 21 21 22 23 23 23 24 25 25 25 27 28 29 29 30 30 29 29 29 29 28 27 27
17 16 15 15 15 15 16 16 17 17 17 17 18 18 18 18 19 20 21 21 21 22 21 21 22 23 24 25 25 26 27 28 29 28 29 29 29 30 31 30 30 29 29
15 15 15 14 14 15 15 16 16 16 16 17 18 19 19 19 19 19 20 21 21 21 21 21 22 23 24 25 26 26 27 27 29 28 29 30 30 31 31 31 31 31 30
15 15 14 14 14 14 15 16 16 17 17 18 18 18 19 19 19 19 19 20 20 20 21 22 22 23 25 25 25 25 25 26 28 29 29 30 31 32 32 32 32 33 32
14 14 14 14 15 15 15 16 16 17 18 18 18 18 18 18 18 18 19 19 20 20 20 21 22 23 23 24 24 24 24 26 27 29 30 30 31 32 33 33 33 34 34
13 14 14 15 16 16 16 16 16 17 17 17 18 18 18 17 18 18 18 19 19 19 20 20 21 21 22 22 23 24 25 27 27 28 29 30 30 31 32 33 34 35 35
13 14 14 15 16 15 15 14 15 16 16 16 16 17 17 17 18 18 18 19 19 19 19 20 21 21 22 23 24 25 26 27 27 28 28 29 30 31 31 33 34 35 35
13 13 14 15 15 15 15 15 15 16 16 16 16 17 17 17 18 18 18 19 19 19 19 20 21 22 23 23 23 25 26 26 27 28 28 29 30 30 32 33 34 34 35
13 13 13 14 14 14 14 15 15 15 15 15 16 16 16 17 17 18 18 19 19 20 20 21 22 22 23 24 24 25 25 26 27 28 29 30 30 31 31 31 32 34 35
13 13 13 14 14 14 14 14 15 14 15 15 16 17 17 17 17 18 18 19 20 20 20 21 22 22 23 24 24 25 25 26 26 27 27 28 29 30 31 31 32 33 33
13 14 14 15 15 15 14 13 13 13 15 16 16 16 17 17 18 19 18 19 19 20 20 21 22 22 22 23 24 24 24 25 25 26 26 27 28 30 31 32 32 32 33
14 14 15 15 14 14 14 13 13 13 14 15 15 16 16 17 17 18 18 18 19 19 20 21 21 21 22 22 23 23 23 24 25 26 27 27 28 30 31 32 33 33 34
14 15 15 14 13 14 14 14 14 14 14 14 15 16 17 17 17 18 18 19 19 20 20 21 21 21 21 21 22 23 24 24 25 26 27 28 28 30 30 32 33 34 35
14 14 13 13 13 14 15 15 16 16 15 15 15 16 16 17 17 17 18 19 19 20 20 20 20 21 21 21 22 23 24 25 25 25 25 26 27 28 30 31 32 33 35
14 14 14 14 14 14 15 15 16 16 16 16 16 16 16 16 16 17 17 18 19 20 20 20 21 21 21 21 21 21 23 23 24 25 25 25 26 26 27 29 30 32 33
14 13 13 14 15 15 15 15 15 16 16 17 17 16 16 16 17 18 18 19 19 20 21 21 22 21 21 21 21 21 22 23 24 25 26 25 26 26 27 28 29 31 32
14 14 14 15 15 16 16 16 16 16 16 16 16 16 16 17 18 18 19 19 20 20 21 21 22 21 21 21 21 22 22 23 23 24 25 25 26 26 26 27 28 29 30
14 14 15 15 16 16 16 16 16 16 16 16 17 16 17 17 18 18 18 19 20 21 21 21 22 21 21 22 22 22 22 22 22 23 24 24 24 25 25 25 26 28 29
15 15 16 16 17 17 17 18 17 17 17 17 17 17 17 18 18 18 19 19 20 21 21 21 21 21 21 21 22 22 22 23 23 22 23 23 24 24 24 24 25 26 27

GEFSMA_500_meanwind_234.txt.gz
Wind_Speed
17 18 18 18 18 17 17 17 17 18 18 18 17 17 18 19 19 19 19 19 19 20 20 20 20 20 20 20 19 20 20 20 21 20 21 21 21 21 21 21 21 21 21
18 18 19 18 18 18 17 17 17 18 18 18 18 18 19 19 19 20 20 20 20 21 21 21 21 21 22 21 21 21 21 22 22 21 22 22 21 22 21 21 21 21 22
18 18 18 18 18 18 18 18 18 18 18 18 19 18 19 19 20 21 21 21 21 21 22 23 23 22 22 22 22 22 22 22 23 22 23 23 22 22 22 22 22 21 22
18 18 19 18 18 18 18 18 18 17 17 18 19 19 19 20 21 21 22 22 22 22 22 23 23 23 23 23 23 23 23 23 23 23 23 23 23 23 23 23 23 23 22
18 18 18 18 18 18 18 18 17 17 18 19 19 20 20 20 21 21 22 22 22 23 23 23 23 24 24 24 23 23 23 23 23 23 23 24 25 24 25 25 24 25 24
17 17 17 17 17 17 18 18 18 18 18 19 19 20 20 21 21 22 22 22 23 23 23 23 24 24 24 24 24 24 24 24 24 24 24 24 25 25 26 26 25 25 25
17 17 17 16 17 17 18 18 18 18 18 18 19 20 21 22 22 22 23 22 22 22 23 23 23 24 24 24 24 24 24 24 25 26 26 26 26 26 27 27 27 26 26
17 16 16 17 17 17 18 18 18 18 18 18 19 21 22 22 22 22 22 22 22 22 22 23 23 23 24 24 24 25 25 26 26 27 27 28 28 28 28 29 28 28 27
17 16 16 16 17 17 17 17 17 18 18 19 19 20 21 21 22 22 22 22 22 22 22 22 23 23 23 24 25 25 26 27 27 28 28 29 29 29 29 30 29 29 28
17 17 17 17 17 17 17 17 17 18 19 19 19 19 20 20 21 21 21 21 21 21 22 22 22 23 24 24 25 25 26 27 28 29 29 29 30 30 29 30 30 30 29
17 17 17 17 16 16 17 17 17 18 19 19 19 19 19 19 19 20 20 21 21 22 22 23 22 23 24 24 25 26 27 27 27 28 29 29 29 29 29 30 30 31 30
17 16 16 16 17 17 17 17 18 18 18 19 18 19 19 20 19 19 20 20 20 21 22 23 23 23 23 24 24 26 26 27 27 27 28 28 29 30 30 30 31 31 31
16 16 16 17 17 17 17 17 18 18 18 18 19 18 19 19 19 20 20 20 21 21 22 23 24 24 23 24 24 25 25 25 26 26 27 28 29 30 30 31 31 32 32
15 15 15 16 16 16 16 16 17 17 18 18 18 17 18 19 20 19 19 19 20 21 22 23 24 25 25 25 26 26 26 26 26 27 27 28 29 29 30 31 32 32 32
14 14 14 14 14 15 15 16 16 17 17 17 17 18 18 19 19 19 19 19 19 19 20 22 23 24 25 26 26 26 27 28 27 27 28 28 29 29 30 30 30 31 31
15 14 13 13 13 14 15 15 15 15 15 16 16 17 18 17 18 18 19 20 20 20 21 22 23 24 25 25 25 26 26 27 27 28 28 29 28 29 28 29 29 29 30
14 13 13 13 13 14 14 14 15 15 15 16 16 17 18 18 18 19 20 20 21 21 21 22 22 23 24 24 25 26 26 26 27 28 28 28 29 29 28 29 29 29 29
14 13 13 13 13 13 13 14 15 15 16 16 17 17 18 18 19 19 19 20 20 21 21 21 22 22 23 24 25 26 26 26 26 27 28 28 28 29 29 30 30 30 30
13 13 13 13 13 14 14 15 15 15 16 16 17 17 18 18 18 19 20 21 21 21 22 22 22 23 23 24 24 24 25 26 26 26 27 28 28 28 29 30 30 31 31
13 13 13 14 14 14 15 15 16 16 16 17 16 17 18 18 18 19 20 21 21 22 23 23 23 23 23 24 24 24 24 25 26 26 26 26 27 27 28 29 30 31 31
14 14 14 14 15 16 16 17 17 17 17 17 16 17 18 19 19 19 20 21 21 22 22 23 23 24 24 24 24 24 24 25 25 26 26 26 26 27 28 28 29 30 30
14 14 15 15 15 16 17 17 17 17 17 17 18 18 19 19 20 20 20 21 21 22 23 23 24 24 24 24 24 24 24 25 25 25 26 26 27 27 27 27 27 29 30
15 15 16 16 16 17 17 17 17 17 17 17 18 18 19 19 19 20 20 21 21 21 22 22 23 23 23 24 24 24 24 25 25 26 26 26 27 27 28 27 27 27 28
15 16 17 17 17 17 17 17 17 17 17 18 18 18 19 19 19 20 20 21 21 21 21 22 22 22 23 23 23 23 24 25 25 26 26 26 26 27 28 28 28 28 27
16 17 17 17 18 18 18 18 18 17 17 18 18 18 19 19 19 19 20 20 21 22 22 22 22 23 24 25 24 24 24 24 24 24 25 25 26 26 27 28 28 28 28
17 17 17 18 18 18 18 18 18 18 18 19 19 19 19 20 20 20 20 20 21 22 22 22 22 23 24 25 25 25 25 24 24 24 25 26 26 26 26 26 27 28 29

GEFSMA_500_meanwind_240.txt.gz
Wind_Speed
17 17 17 17 16 15 15 16 15 15 15 16 16 16 17 16 17 17 17 18 18 18 18 19 18 19 19 19 18 18 19 19 19 19 19 19 20 20 20 19 18 18 17
17 18 18 18 17 16 16 16 16 16 16 16 17 17 17 17 17 18 19 19 19 19 19 20 20 20 20 20 19 19 19 19 19 19 19 20 20 21 21 20 20 19 19
16 17 17 17 16 16 17 17 17 17 17 17 17 17 18 18 18 18 19 20 20 20 20 20 21 21 20 20 21 20 21 20 20 20 20 19 19 20 21 21 21 20 20
16 16 16 17 16 16 16 16 16 17 18 18 18 18 18 19 19 19 19 20 20 21 21 21 21 22 22 21 21 21 22 22 22 21 21 20 20 20 20 21 22 22 21
16 17 17 17 16 16 15 16 16 17 17 17 18 19 19 19 20 19 19 20 20 20 21 22 22 22 22 21 22 22 22 22 22 22 22 21 21 20 20 21 22 22 22
16 17 17 16 16 16 16 16 16 16 17 17 18 19 20 20 20 20 19 19 21 22 22 22 22 23 22 23 23 23 23 22 23 23 23 22 22 21 21 21 22 23 23
16 16 16 16 17 17 16 15 16 16 17 18 18 18 19 19 20 20 20 20 20 21 21 22 22 22 23 23 23 23 24 24 24 24 24 23 23 23 23 22 23 24 24
16 16 15 16 16 16 16 16 16 16 16 17 17 18 19 19 20 21 21 20 20 20 20 22 22 22 22 23 23 24 24 25 25 25 25 25 25 24 25 25 25 26 26
17 16 15 16 16 15 16 17 17 17 17 17 18 18 18 18 19 20 20 21 21 21 21 21 21 22 22 22 24 24 24 24 25 26 26 26 26 26 26 27 27 27 27
16 16 17 17 18 18 17 17 17 17 17 17 17 18 18 18 19 19 21 21 21 21 21 21 22 22 23 23 23 24 25 25 26 26 26 26 27 27 28 28 28 27 28
17 17 17 17 17 18 18 17 17 17 17 17 17 18 19 19 19 19 20 21 21 22 22 22 23 23 23 24 24 25 25 26 26 27 27 27 28 28 29 29 29 28 29
17 17 17 17 17 17 18 17 17 17 17 17 18 18 18 19 20 20 20 20 21 22 22 22 23 24 24 25 26 26 26 26 26 27 27 28 28 29 29 29 29 29 30
16 16 15 16 16 17 17 17 16 17 17 17 18 18 18 18 19 19 20 20 21 22 23 23 23 24 25 25 26 26 27 27 27 27 28 28 29 29 30 30 30 31 31
16 15 15 15 15 15 16 17 16 16 17 17 17 18 18 19 19 18 19 19 20 21 22 22 23 23 24 24 25 26 27 27 27 27 28 29 29 30 30 30 30 30 30
16 16 15 15 15 15 15 15 15 16 16 16 17 18 18 19 19 19 20 20 20 20 20 21 22 23 23 24 25 25 26 26 27 28 28 28 28 29 30 30 30 30 30
15 14 14 14 15 15 15 15 15 16 16 17 17 18 18 18 19 20 20 20 20 20 19 20 22 23 23 24 24 25 26 26 27 27 28 28 28 28 29 30 30 30 30
14 13 13 14 14 14 14 15 15 16 16 16 17 17 17 18 18 19 19 19 19 19 19 20 21 22 23 23 24 25 25 26 27 27 27 27 27 28 28 29 30 30 30
14 13 14 14 14 14 14 14 14 15 15 16 16 16 17 18 19 19 18 18 18 19 19 20 21 22 23 24 25 25 26 26 26 26 27 27 27 28 28 29 30 30 31
14 14 15 15 14 14 15 15 15 15 16 16 16 16 18 19 19 19 19 18 19 19 20 21 22 23 24 24 25 25 26 26 26 26 27 28 28 29 29 29 30 31 32
14 15 15 15 14 14 15 15 15 16 16 17 17 17 18 19 19 19 19 19 20 20 21 21 22 22 23 24 24 25 26 27 27 28 28 29 29 30 30 30 30 31 31
14 15 15 15 15 15 15 15 16 16 16 17 18 19 19 19 19 19 20 20 21 21 22 22 23 23 24 25 26 26 26 27 28 28 29 30 30 31 31 31 31 31 31
14 15 15 15 15 15 15 16 16 16 17 17 18 19 19 20 19 20 20 21 21 22 23 23 23 24 24 25 26 26 26 27 27 28 29 29 30 30 30 30 31 31 32
15 15 15 14 15 15 16 16 16 16 17 17 18 19 19 20 20 21 20 20 21 21 22 22 23 23 24 25 26 26 26 27 26 27 27 27 27 28 28 28 29 30 31
15 15 15 15 15 16 16 16 16 16 17 17 18 19 20 20 21 21 21 21 21 21 22 22 22 24 25 25 26 26 25 25 25 26 26 27 27 27 27 28 28 29 30
16 16 16 16 16 16 16 16 17 17 18 18 19 20 21 21 20 20 21 21 21 21 22 23 23 24 24 24 25 25 25 25 25 26 26 27 27 27 28 28 28 29 30
18 18 17 17 17 17 17 18 18 18 19 19 20 21 21 21 20 20 21 22 22 22 22 22 23 23 23 23 23 24 25 26 26 26 26 27 27 28 28 29 29 29 30

GEFSMA_500_meanwind_246.txt.gz
Wind_Speed
16 16 17 17 16 15 15 16 16 15 15 15 15 15 15 15 15 13 13 13 13 13 13 13 14 15 15 16 17 16 16 17 18 18 18 17 17 17 17 16 16 15 15
16 16 16 17 17 16 16 16 16 15 15 15 15 15 15 16 16 15 15 15 14 14 14 14 14 14 15 16 17 17 17 17 18 18 18 18 18 18 17 17 17 16 16
15 16 16 17 17 16 15 16 16 16 16 15 15 14 15 16 17 17 16 16 16 16 15 15 15 16 16 17 17 17 18 18 18 18 18 19 19 19 19 18 18 17 17
15 16 17 17 17 16 16 16 16 16 16 16 15 15 15 16 16 17 17 18 18 18 17 16 16 17 17 17 18 19 19 19 19 18 18 18 19 19 19 20 19 18 17
16 16 16 17 17 16 16 16 16 16 16 16 16 16 17 17 18 18 19 19 18 18 18 18 18 18 18 19 19 20 20 20 20 19 19 18 19 19 20 20 20 19 18
17 16 16 16 17 17 16 16 16 17 17 17 17 17 18 18 18 19 19 19 19 19 19 19 18 18 19 19 20 21 21 21 21 21 21 20 20 20 20 20 20 20 20
17 17 17 16 16 17 17 17 17 17 18 18 17 18 19 19 18 19 19 19 19 20 20 19 19 19 19 19 20 21 21 22 22 22 22 22 22 21 21 21 21 21 21
17 17 17 16 17 17 17 16 16 17 18 17 18 19 19 19 19 19 19 19 19 19 19 20 20 20 20 20 20 21 22 22 23 23 23 24 23 23 23 22 22 22 22
18 18 18 17 17 17 17 17 16 16 16 18 19 19 19 19 18 18 19 19 19 19 20 20 20 19 19 20 21 21 22 23 23 24 24 24 25 24 23 23 23 23 23
18 18 18 18 18 17 18 18 17 16 16 17 17 17 17 18 17 17 18 19 19 20 20 21 21 21 21 20 21 21 22 23 23 24 25 25 25 25 25 25 25 24 24
18 18 19 19 19 18 18 18 17 17 17 17 17 17 18 18 18 18 17 18 18 19 19 20 20 21 21 21 21 21 22 23 24 24 25 25 26 26 27 27 26 26 26
18 19 18 18 19 18 18 17 18 17 17 18 18 18 18 19 19 18 18 18 18 19 19 19 20 20 21 21 22 22 23 23 24 24 25 26 26 27 27 27 27 27 27
18 18 18 19 19 18 17 16 17 17 18 18 19 18 19 19 20 19 19 19 19 19 20 20 21 21 21 21 22 23 23 24 24 25 26 27 27 28 28 29 29 29 29
18 18 18 19 18 17 17 17 17 17 18 18 19 19 19 18 19 20 19 20 20 20 20 21 21 21 22 22 22 22 23 24 24 24 25 26 27 27 27 29 29 28 28
18 18 18 18 17 17 17 18 17 17 18 18 19 19 19 19 18 19 20 19 20 19 19 19 21 21 22 22 23 22 23 23 24 24 24 26 26 27 27 28 28 28 29
16 17 18 17 17 17 17 17 17 17 17 18 18 18 18 19 19 19 19 19 19 19 19 20 21 21 21 22 23 23 24 23 24 24 25 25 26 27 28 28 28 28 29
17 17 17 16 16 16 17 17 17 17 17 17 17 17 17 17 17 17 18 18 18 19 19 20 20 21 21 22 23 24 24 24 24 24 25 25 26 27 28 28 29 29 29
17 17 16 16 17 17 17 17 17 17 17 17 16 17 18 18 17 17 18 18 19 19 20 20 20 21 21 22 22 23 24 24 24 25 25 26 26 27 27 28 29 29 29
17 16 16 17 17 17 17 18 18 17 17 17 17 17 17 18 18 19 19 19 20 20 20 20 20 21 22 23 23 23 24 24 24 25 25 25 26 26 27 27 28 28 29
17 17 18 18 18 18 18 18 18 18 18 18 18 19 19 19 20 20 20 20 21 21 21 21 21 22 23 24 24 24 24 25 25 25 25 25 25 26 27 27 27 27 28
18 18 18 19 18 18 18 18 18 18 19 19 19 19 20 20 21 21 21 21 22 22 22 22 22 22 22 23 24 24 25 25 25 26 26 26 27 27 27 27 27 28 29
18 18 18 18 19 19 18 18 18 18 18 19 19 20 20 20 20 22 22 22 22 22 22 22 22 22 23 23 24 24 24 25 25 26 26 26 27 27 27 27 28 28 29
19 19 19 19 18 18 18 18 18 18 19 19 19 20 20 19 21 21 22 22 21 21 21 21 22 22 23 23 24 24 24 25 25 26 26 26 27 27 27 28 28 29 29
21 20 20 19 19 19 19 19 18 18 18 18 19 19 20 20 21 22 22 21 21 21 21 21 22 22 23 23 23 23 24 24 25 26 26 26 26 27 27 28 29 30 30
20 20 19 19 19 19 19 19 18 18 18 19 19 20 20 21 22 22 22 22 22 22 22 21 22 22 23 23 23 23 23 23 23 24 25 25 25 26 26 27 29 30 30
20 20 20 20 20 19 19 19 19 19 19 19 20 20 20 21 22 22 22 22 22 23 23 22 23 23 23 23 23 22 23 23 23 24 24 24 24 25 26 27 28 28 28